Regional Weather Roundup
Issued by NWS

Home | Current Version | Previous Version | Text Only | Print | Product List | Glossary On
Versions: 1 2 3 4 5 6 7 8 9 10 11 12 13 14 15 16 17 18 19 20 21 22 23 24 25 26 27 28 29 30 31 32 33 34 35 36 37 38 39 40 41 42 43 44 45 46 47 48 49 50
797
ASUS43 KLMK 302110
RWRKY
KENTUCKY REGIONAL WEATHER ROUNDUP
NATIONAL WEATHER SERVICE LOUISVILLE KY
500 PM EDT SAT JUL 30 2016

NOTE "FAIR" INDICATES FEW OR NO CLOUDS BELOW 12,000 FEET
WITH NO SIGNIFICANT WEATHER AND/OR OBSTRUCTIONS TO VISIBILITY.

KYZ001>023-026-027-061>063-070>075-302200-
WESTERN AND SOUTH CENTRAL KENTUCKY

CITY           SKY/WX    TMP DP  RH WIND       PRES   REMARKS
PADUCAH        SUNNY     86  70  58 NW5       29.96S HX  90
HENDERSON      MOSUNNY   88  72  58 W6        29.94F HX  94
OWENSBORO      MOSUNNY   87  73  62 W12       29.95F HX  94
HOPKINSVILLE   MOSUNNY   84  71  63 W5        29.96F
BOWLING GREEN  MOSUNNY   86  71  60 S8        29.96F HX  91
GLASGOW        MOSUNNY   86  70  59 SW3       29.97F HX  91
$$

KYZ024-025-028>034-038-045-046-053-302200-
NORTH CENTRAL KENTUCKY

CITY           SKY/WX    TMP DP  RH WIND       PRES   REMARKS
LOUISVILLE/SDF PTSUNNY   83  70  64 NW6       29.95F
LOUISVILLE/LOU LGT RAIN  80  69  69 NW6       29.96F
FORT KNOX      DRIZZLE   81  70  69 VRB2      29.95S
$$

KYZ035>037-039>044-047>052-055>060-089>105-302200-
NORTHEAST KENTUCKY

CITY           SKY/WX    TMP DP  RH WIND       PRES   REMARKS
LEXINGTON      MOSUNNY   85  69  58 SW10      29.97S
COVINGTON      PTSUNNY   83  68  60 W8        29.95S
FRANKFORT      TSTM      72  68  87 SW7       29.98R FOG
$$

KYZ054-064>069-076>088-106>120-302200-
SOUTHEAST KENTUCKY

CITY           SKY/WX    TMP DP  RH WIND       PRES   REMARKS
JACKSON        SUNNY     86  69  56 VRB5      29.99S HX  90
LONDON         SUNNY     86  66  51 W10       29.99F
SOMERSET       MOSUNNY   82  68  61 W10       30.00S
MIDDLESBORO    CLOUDY    84  72  67 SW5       30.00R
MONTICELLO     CLEAR    N/A N/A N/A NW9       30.01F
$$





USA.gov is the U.S. government's official web portal to all federal, state and local government web resources and services.